Station: Macquarie Island  

  Atmospheric Gas Attenuation - ITU Rec 676-11   ----------------- dB/100km -----------------
Date Time Temp RH % AH g/m3 Dew Point Wind Direction Speed kph Gust kph Barometer mB Rainfall Since 9am 24GHz 47GHz 76GHz 122GHz 134GHz 241GHz
09/05 17:20 0.7 63 3.21 -5.5 65 80 981.9 0.4 8.5 19.6 22.8 59.4 39.1 129.0
09/05 17:10 0.8 62 3.18 -5.6 28 41 982.2 0.4 8.4 19.6 22.7 59.0 38.7 127.6
09/05 17:00 1.1 54 2.83 -7.1 61 78 981.9 0.4 7.6 19.0 21.3 55.4 34.3 112.3
09/05 16:50 1 55 2.86 -7 37 69 982.1 0.4 7.7 19.1 21.4 55.7 34.7 113.7
09/05 16:40 0.9 61 3.15 -5.8 39 69 982.1 0.4 8.3 19.5 22.5 58.6 38.3 126.2
09/05 16:30 0.7 67 3.41 -4.7 33 52 982 0.4 8.9 19.9 23.5 61.3 41.5 137.7
09/05 16:20 0.9 69 3.56 -4.1 44 61 981.7 0.4 9.2 20.1 24.0 62.7 43.3 143.8
09/05 16:10 0.6 81 4.1 -2.3 56 82 981.4 0.4 10.4 21.0 26.1 68.4 50.2 168.2
09/05 16:00 -0.3 78 3.71 -3.7 35 50 981.8 0.4 9.6 20.6 25.0 65.2 45.8 152.7
09/05 15:50 1.3 64 3.39 -4.7 59 89 981 0.4 8.8 19.7 23.2 60.6 40.9 135.7
09/05 15:40 0.8 72 3.69 -3.7 54 72 981 0.4 9.5 20.3 24.5 64.0 44.9 149.6
09/05 15:30 0.9 68 3.51 -4.3 32 41 981.3 0.4 9.1 20.0 23.8 62.1 42.6 141.6
09/05 15:20 1.5 58 3.12 -5.8 54 76 980.9 0.4 8.2 19.3 22.2 57.8 37.6 123.8
09/05 15:10 1.7 58 3.16 -5.7 52 72 980.8 0.4 8.3 19.3 22.3 58.0 37.9 125.2
09/05 15:00 1.3 63 3.34 -5 44 70 980.7 0.4 8.7 19.7 23.0 60.1 40.3 133.5
09/05 14:50 0.7 61 3.11 -5.9 35 48 981 0.4 8.2 19.5 22.4 58.3 37.8 124.6
09/05 14:40 1.1 71 3.71 -3.6 65 87 981.2 0.4 9.5 20.3 24.5 64.0 45.0 149.9
09/05 14:30 1.5 61 3.28 -5.2 56 76 980.9 0.4 8.6 19.5 22.8 59.4 39.5 130.6
09/05 14:20 0.7 68 3.46 -4.5 59 76 981 0.4 9.0 20.0 23.7 61.8 42.1 139.7
09/05 14:10 1.1 61 3.19 -5.6 44 63 980.7 0.4 8.4 19.5 22.6 58.8 38.6 127.4
09/05 14:00 1.6 62 3.36 -4.9 63 87 980.8 0.4 8.8 19.6 23.0 60.1 40.4 133.8
09/05 13:50 1.8 59 3.24 -5.3 54 65 980.6 0.4 8.5 19.4 22.5 58.7 38.8 128.4
09/05 13:40 1.5 68 3.66 -3.7 61 76 980.8 0.4 9.4 20.1 24.2 63.1 44.1 146.9
09/05 13:30 1.6 48 2.6 -8.2 33 50 980.8 0.4 7.1 18.5 20.3 52.8 31.4 102.0
09/05 13:20 1.8 53 2.91 -6.7 56 96 980.2 0.4 7.8 18.9 21.3 55.5 34.9 114.5
09/05 13:10 1.8 56 3.07 -6 37 50 980.5 0.4 8.1 19.2 21.9 57.1 36.8 121.2
09/05 13:00 1.7 53 2.89 -6.8 43 74 980.6 0.4 7.7 18.9 21.3 55.4 34.7 113.8
09/05 12:50 2.1 58 3.25 -5.3 52 65 980 0.4 8.5 19.3 22.5 58.6 38.8 128.3
09/05 12:40 2.5 49 2.82 -7.1 54 80 979.8 0.4 7.6 18.6 20.8 54.1 33.5 109.7
09/05 12:30 2.5 59 3.39 -4.7 50 63 979.4 0.4 8.8 19.4 22.8 59.6 40.2 133.4
09/05 12:20 2.1 63 3.53 -4.2 61 72 979.6 0.4 9.1 19.7 23.5 61.3 42.2 140.1
09/05 12:10 2.1 64 3.58 -4 48 69 979.5 0.4 9.2 19.8 23.7 61.7 42.8 142.2
09/05 12:00 1.5 69 3.71 -3.6 22 28 979.8 0.4 9.5 20.1 24.3 63.5 44.7 149.0
09/05 11:50 1.7 70 3.82 -3.2 28 39 980.2 0 9.7 20.3 24.7 64.5 46.0 153.4
09/05 11:40 2.2 66 3.72 -3.5 37 72 979.5 0 9.5 20.0 24.1 63.0 44.4 148.1
09/05 11:30 2 65 3.62 -3.9 32 46 979.7 0 9.3 19.9 23.8 62.2 43.3 144.2
09/05 11:20 1.4 70 3.74 -3.5 44 61 979.9 0 9.6 20.2 24.5 63.9 45.1 150.5
09/05 11:10 2.6 60 3.48 -4.4 52 57 979.6 0 9.0 19.6 23.2 60.4 41.3 137.1
09/05 11:00 3.1 58 3.48 -4.3 46 74 979.5 0 9.0 19.4 23.0 60.0 41.0 136.2
09/05 10:50 2.5 56 3.22 -5.4 37 63 979.6 0 8.4 19.2 22.2 57.9 38.2 126.3
09/05 10:40 2.5 58 3.34 -4.9 28 39 979.8 0 8.7 19.4 22.7 59.1 39.7 131.4
09/05 10:30 1.9 59 3.26 -5.2 26 46 980 0 8.5 19.4 22.6 58.8 39.0 129.0
09/05 10:20 2.1 65 3.64 -3.8 35 48 980 0 9.3 19.9 23.9 62.4 43.5 144.9
09/05 10:10 2.6 58 3.36 -4.8 48 56 979.7 0 8.7 19.4 22.7 59.2 39.9 132.0
09/05 10:00 2.5 61 3.51 -4.2 39 65 979.6 0 9.1 19.6 23.3 60.8 41.7 138.6
09/05 09:50 2.5 52 2.99 -6.3 43 61 979.9 0 7.9 18.9 21.4 55.8 35.5 116.8
09/05 09:40 2.7 53 3.09 -5.9 33 44 979.8 0 8.1 19.0 21.7 56.6 36.6 120.6
09/05 09:30 2.8 53 3.11 -5.8 32 50 979.6 0 8.2 19.0 21.8 56.7 36.8 121.3
09/05 09:20 2.5 59 3.39 -4.7 28 43 979.6 0 8.8 19.4 22.9 59.6 40.3 133.5
09/05 09:10 2.5 59 3.39 -4.7 28 33 979.6 0 8.8 19.4 22.9 59.6 40.3 133.5
09/05 09:00 2.7 55 3.21 -5.4 28 39 979.5 0 8.4 19.1 22.1 57.7 38.0 125.6
09/05 08:50 2.9 54 3.19 -5.5 37 50 979.3 7.2 8.4 19.1 22.0 57.3 37.7 124.4
09/05 08:40 2.7 57 3.32 -4.9 35 54 979.2 7.2 8.6 19.3 22.5 58.7 39.3 130.1
09/05 08:30 2.6 58 3.36 -4.8 39 82 979.2 7.2 8.7 19.4 22.7 59.2 39.8 132.0
09/05 08:20 2.6 54 3.13 -5.8 35 41 979.4 7.2 8.2 19.0 21.9 57.0 37.1 122.4
09/05 08:10 2.8 59 3.46 -4.4 33 46 979.1 7.2 8.9 19.5 23.0 60.0 40.9 135.9
09/05 08:00 2.6 58 3.36 -4.8 33 65 979.1 7.2 8.7 19.4 22.7 59.2 39.8 132.0
09/05 07:50 2.7 64 3.73 -3.4 44 57 978.9 7.2 9.5 19.9 24.0 62.7 44.2 147.5
09/05 07:40 2.6 60 3.48 -4.4 33 43 979 7.2 9.0 19.5 23.1 60.3 41.3 137.0
09/05 07:30 2.6 60 3.48 -4.4 37 69 978.8 7.2 9.0 19.5 23.1 60.3 41.3 137.0
09/05 07:20 2.4 60 3.43 -4.6 52 72 978.8 7.2 8.9 19.5 23.0 60.0 40.8 135.2
09/05 07:10 2 71 3.95 -2.7 52 65 978.8 7.2 10.0 20.4 25.0 65.4 47.3 158.3
09/05 07:00 2.2 68 3.83 -3.1 26 54 978.6 7.2 9.8 20.1 24.5 64.1 45.7 152.7
09/05 06:50 1.8 71 3.9 -2.9 30 48 978.7 7.2 9.9 20.3 24.9 65.1 46.8 156.5
09/05 06:40 1.3 75 3.98 -2.6 32 46 978.7 7.2 10.1 20.6 25.4 66.3 48.1 161.0
09/05 06:30 1.8 71 3.9 -2.9 39 69 978.7 7.2 9.9 20.3 24.9 65.1 46.8 156.5
09/05 06:20 2 66 3.67 -3.7 56 69 978.4 7.2 9.4 19.9 24.0 62.6 43.9 146.1
09/05 06:10 1.9 70 3.87 -3 35 59 978.2 7.2 9.8 20.2 24.7 64.7 46.4 155.0
09/05 06:00 2.1 71 3.98 -2.6 39 74 978 7.2 10.1 20.4 25.1 65.6 47.6 159.3
09/05 05:50 2.4 73 4.17 -1.9 37 76 977.6 7.2 10.5 20.6 25.7 67.2 49.8 167.0
09/05 05:40 1.7 76 4.14 -2.1 30 35 977.5 7.2 10.4 20.7 25.8 67.5 49.8 167.1
09/05 05:30 1.6 73 3.95 -2.7 35 74 977.7 7.2 10.0 20.4 25.1 65.7 47.5 159.0
09/05 05:20 2.2 72 4.06 -2.3 46 65 977.5 7.2 10.2 20.4 25.3 66.3 48.5 162.5
09/05 05:10 2.8 69 4.05 -2.3 30 44 977 7.2 10.2 20.3 25.1 65.6 48.0 160.8
09/05 05:00 2.8 67 3.93 -2.7 32 57 976.8 7.2 9.9 20.1 24.6 64.4 46.5 155.6
09/05 04:50 2.9 66 3.9 -2.8 24 30 976.4 7.2 9.9 20.0 24.5 64.0 46.1 154.0
09/05 04:40 2.9 69 4.08 -2.2 41 56 976.3 7.2 10.3 20.3 25.2 65.8 48.3 161.8
09/05 04:30 2.4 71 4.06 -2.3 32 57 975.9 7.2 10.2 20.3 25.2 66.0 48.3 161.9
09/05 04:20 3.1 75 4.49 -0.9 35 50 975.6 7.2 11.2 20.8 26.6 69.7 53.2 179.2
09/05 04:10 3.1 66 3.95 -2.6 30 44 975.1 7.2 10.0 20.0 24.6 64.2 46.5 155.6
09/05 04:00 3.1 67 4.01 -2.4 37 67 975.1 7.2 10.1 20.1 24.8 64.8 47.2 158.2
09/05 03:50 3.5 72 4.43 -1.1 39 61 974.5 7.2 11.0 20.6 26.2 68.6 52.1 175.5
09/05 03:40 3.3 75 4.55 -0.7 52 69 974.2 7.2 11.3 20.8 26.7 70.0 53.8 181.1
09/05 03:30 3.4 74 4.52 -0.8 39 85 973.9 7.2 11.2 20.7 26.6 69.6 53.3 179.5
09/05 03:20 3.5 76 4.68 -0.3 28 37 973.2 7.2 11.6 20.9 27.1 71.0 55.2 186.2
09/05 03:10 4.1 71 4.55 -0.7 48 56 973.1 7.2 11.2 20.6 26.4 69.2 53.2 179.1
09/05 03:00 3.7 76 4.74 -0.1 44 76 972.5 7.2 11.7 20.9 27.2 71.4 55.8 188.3
09/05 02:50 3.6 80 4.96 0.5 35 50 971.9 7.2 12.2 21.3 28.1 73.7 58.6 198.1
09/05 02:40 4.3 73 4.74 -0.1 33 41 971.8 7.2 11.7 20.8 27.0 70.8 55.3 186.7
09/05 02:30 4.4 72 4.71 -0.2 54 93 971.2 7.2 11.6 20.7 26.8 70.4 54.8 185.1
09/05 02:20 4.6 73 4.83 0.2 61 78 970.9 7.2 11.8 20.8 27.2 71.4 56.2 189.8
09/05 02:10 4.5 72 4.74 -0.1 57 87 970.5 7.2 11.6 20.7 26.9 70.5 55.1 186.0
09/05 02:00 4.5 74 4.87 0.3 44 76 969.9 7.2 11.9 20.9 27.4 71.8 56.7 191.6
09/05 01:50 4.3 76 4.93 0.5 57 85 969.4 7.2 12.1 21.0 27.6 72.5 57.5 194.6
09/05 01:40 4.5 77 5.07 0.8 67 109 969 7.2 12.4 21.1 28.1 73.7 59.1 200.2
09/05 01:30 4.2 77 4.97 0.5 76 106 968.8 7.2 12.2 21.0 27.8 73.0 58.1 196.5
09/05 01:20 4.2 81 5.22 1.2 69 80 968.9 7.2 12.7 21.4 28.8 75.5 61.2 207.6
09/05 01:10 4.2 80 5.16 1.1 80 96 968.6 7.2 12.6 21.3 28.5 74.9 60.5 204.9
09/05 01:00 4 81 5.15 1 74 100 968.5 7.2 12.6 21.4 28.5 75.0 60.5 205.0
09/05 00:50 3.5 85 5.23 1.2 76 98 968.6 7 12.7 21.6 29.0 76.3 61.9 209.9

Last Refresh: 09-May-2026 16:57:20

Bureau of Meteorology